« Back
NWS Peachtree City, Ga » Text Product » GA Regional Weather Roundup


Printer-friendly Version
Current Version              Previous Versions:   1  2  3  4  5  6  7  8  9  

Regional Weather Roundup

267
ASUS42 KFFC 290503
RWRGA
WEATHER ROUNDUP FOR GEORGIA
NATIONAL WEATHER SERVICE PEACHTREE CITY GA
100 AM EDT MON AUG 29 2016

NOTE: "FAIR" INDICATES FEW OR NO CLOUDS BELOW 12,000 FEET WITH NO
SIGNIFICANT WEATHER AND/OR OBSTRUCTIONS TO VISIBILITY.

* = USE WITH CAUTION. THE STATIONS MARKED WITH AN ASTERISK MAY NOT
REPORT WEATHER SUCH AS PRECIPITATION, FOG, OR THUNDER AND ARE NOT
QUALITY CONTROLLED BY NWS.

THE REMARK "TC" DENOTES TEMPERATURE READING IN DEGREES CELSIUS.

GAZ001>058-290600-
NORTH GEORGIA

CITY           SKY/WX    TMP DP  RH WIND       PRES   REMARKS
ATLANTA        PTCLDY    81  66  60 NE12      30.12S
ATHENS         PTCLDY    74  68  81 E3        30.13S
CHAMBLEE       CLEAR     80  65  59 VRB6      30.13S
PEACHTREE CITY PTCLDY    79  69  71 E3        30.11R
ROME           PTCLDY    73  71  93 N3        30.12R
WEST ATLANTA   CLEAR     78  66  66 NE3       30.11S
GAINESVILLE    CLEAR     76  67  73 NE7       30.18S
CARTERSVILLE   CLEAR     72  70  93 CALM      30.12S


CITY           SKY/WX    TMP DP  RH WIND       PRES   REMARKS
DALTON*        PTCLDY    72  72 100 CALM      30.14S
MARIETTA       CLEAR     79  69  71 VRB2      30.13S
CANTON*        CLEAR    N/A N/A N/A CALM      30.16S
BLAIRSVILLE*   FOG      N/A N/A N/A MISG      30.21F VSB 1/4
$$

GAZ059>098-102>109-290600-
CENTRAL GEORGIA

CITY           SKY/WX    TMP DP  RH WIND       PRES   REMARKS
AUGUSTA-BUSH   CLEAR     75  73  93 N3        30.09F
AUGUSTA-DANIEL CLEAR     81  72  74 E3        30.11F
COLUMBUS       CLEAR     81  68  64 E8        30.06R
MACON          MOCLDY    79  70  74 E3        30.08R
ROBINS AFB     MOCLDY    79  73  82 SE3       30.07S


CITY           SKY/WX    TMP DP  RH WIND       PRES   REMARKS
LAGRANGE*      CLEAR     82  74  77 E3        30.08S
MILLEDGEVILLE* MOCLDY    81  73  78 E3        30.10S
$$

GAZ099>101-110>166-290600-
SOUTH GEORGIA

CITY           SKY/WX    TMP DP  RH WIND       PRES   REMARKS
SAVANNAH       CLEAR     77  73  87 N8        30.06F
VALDOSTA       CLEAR     78  76  93 E5        30.03F
ALMA           CLEAR     76  71  85 CALM      30.04F
ST SIMONS      PTCLDY    82  74  76 E10       30.03F
FT STEWART     PTCLDY    75  73  93 NE1       30.03S
ALBANY         PTCLDY    80  71  74 E6        30.06S
HUNTER AFB     CLEAR     76  76 100 NE6       30.03F
MOODY AFB      CLEAR     76  73  89 NE3       30.03F
BRUNSWICK      CLEAR     75  73  94 CALM      30.04F


CITY           SKY/WX    TMP DP  RH WIND       PRES   REMARKS
BAINBRIDGE*    PTCLDY    79  72  78 CALM      30.02F
MOULTRIE*      CLEAR     77  72  83 CALM      30.05F
VIDALIA*       CLEAR     77  77 100 E3        30.07F
WAYCROSS*        N/A     78  76  96 E3        30.03F
DOUGLAS*       CLEAR     77  70  78 CALM      30.06S
$$




USA.gov is the U.S. government's official web portal to all federal, state and local government web resources and services.